User: anonymous   Login
Location: Albany
(35.0000°S, 118.0000°E)
Time: 13:23:22
(UTC-04:00)
Language:

CZ-4B R/B - Orbit

View from above orbital plane
View from above orbital plane
View from above satellite
View from above satellite

Ground track
Ground track

The orbit data is extracted from the following two-line orbital elements,

1 33410U 08053C   16124.50128771  .00000623  00000-0  50611-4 0  9990
2 33410  97.6761  94.4462 0122619 125.4727 235.8012 14.97626171409454
Epoch (UTC): 03 May 2016 12:01:51
Eccentricity: 0.0122619
inclination: 97.6761°
perigee height: 489 km
apogee height: 659 km
right ascension of ascending node: 94.4462°
argument of perigee: 125.4727°
revolutions per day: 14.97626171
mean anomaly at epoch: 235.8012°
orbit number at epoch: 40945

The dashed part of the orbit path shows where the satellite is in the earth's shadow,  

DLR